Regional Weather Roundup
Issued by NWS Newport/Morehead, NC

Current Version | Previous Version | Text Only | Print | Product List | Glossary On
Versions: 1 2 3 4 5 6 7 8 9 10 11 12 13 14 15 16 17 18 19 20 21 22 23 24 25 26 27 28 29 30 31 32 33 34 35 36 37 38 39 40 41 42 43 44 45 46 47 48 49 50
000
ASUS42 KMHX 281525
RWRMHX
WEATHER ROUNDUP FOR EASTERN NORTH CAROLINA
NATIONAL WEATHER SERVICE NEWPORT/MOREHEAD CITY NC
1100 AM EDT WED SEP 28 2016

NOTE: "FAIR" INDICATES FEW OR NO CLOUDS BELOW 12,000 FEET
WITH NO SIGNIFICANT WEATHER AND/OR OBSTRUCTIONS TO VISIBILITY

NCZ015>017-031-032-045>047-102-103-281600-
NORTH COAST

CITY           SKY/WX    TMP DP  RH WIND       PRES   REMARKS
EDENTON        SUNNY     80  67  66 S6        29.99F
ELIZABETH CITY SUNNY     79  68  69 E6        29.97F
KITTY HAWK     PTSUNNY   80  75  82 NE6       29.98S
MANTEO         MOSUNNY   77  72  85 E6        29.99S

$$

NCZ045>047-081-094-103-104-281600-
CENTRAL COAST

CITY           SKY/WX    TMP DP  RH WIND       PRES   REMARKS
FRISCO         MOSUNNY   81  71  71 VRB5      29.99R

$$

NCZ095-097-098-100-101-281600-
SOUTHERN COAST

CITY           SKY/WX    TMP DP  RH WIND       PRES   REMARKS
BEAUFORT       MOSUNNY   82  69  64 CALM      29.99S
CEDAR ISLAND   NOT AVBL
JACKSONVILLE   MOSUNNY   82  70  66 SW6       29.98R
PINEY ISLAND   SUNNY    N/A N/A N/A E7        29.99R
WILMINGTON     SUNNY     82  71  69 SW7       29.98S


$$

NCZ011>013-027>030-043-044-078>080-089-090>093-098-281600-
COASTAL PLAIN

CITY           SKY/WX    TMP DP  RH WIND       PRES   REMARKS
AHOSKIE        RAIN      77  72  85 S5        29.97F
CLINTON        SUNNY     81  71  72 S5        29.98S
ELIZABETHTOWN  SUNNY     81  70  69 SW6       29.97F
GOLDSBORO      SUNNY     81  73  76 SW10      29.96R
GREENVILLE     MOSUNNY   82  72  69 SW9       29.99S
HAVELOCK       MOSUNNY   82  70  66 W6        29.99S
KENANSVILLE    SUNNY     81  70  69 S3        29.98S HAZE
KINSTON        SUNNY     81  70  69 S9        29.99R
NEW BERN       SUNNY     81  69  67 SW6       29.99R
RICHLANDS      SUNNY     83  73  72 SW8       29.98S
ROCKY MOUNT    CLOUDY    78  72  81 S7        29.97S
WASHINGTON     SUNNY     80  71  74 CALM      29.98S
WHITEVILLE     SUNNY     82  70  66 SW6       29.97S

$$

AMZ130-135-150-152-154-156-158-170-250-252-270-ANZ085-086-088-633-658-670-281600-
MARINE OBSERVATIONS

STATION/POSITION TIME  TEMP    WIND        PRES    WAVE   SWELL
                       AIR SEA DIR/SP/G            HT/PER HT/PER
                 (UTC) (F)     (DEG/KT/KT) (MB)    (FT/S) (FT/S)
CHESAPEAKE LIGHT NOT AVBL
64 E VA BEACH    1450   74 74   30/ 10/ 12 1014.9    5/ 6   5/ 6
DUCK             1500   75 76   50/  6/  6 1014.9
2 E DUCK         1441      76                N/A     4/ 8   2/12
OREGON INLET     1500   76 76   50/  6/  8 1015.3
13E OREGON INLT  1500      76                N/A     4/ 7   3/ 7
HATTERAS CG      1500   76 76   10/  7/  8 1015.5
DIAMOND BUOY     1450   77 83   20/ 10/ 12 1015.3    4/ 8   3/ 8
CAPE LOOKOUT     1500   78      80/  6/  6 1015.2
BEAUFORT LAB     1500   81 76  170/  2/  3 1014.9
30 SE NEW RVR IN 1508   81 83  250/  2/  4 1015.5
30 SE NEW RVR IN 1455      83                N/A     3/ 7   2/11
27 SE WRIGHTSVLE 1508   81 81  220/  2/  2 1015.8
5 SE WRIGHTSVLE  1508   80 81  190/  4/  6 1016.7
225 S CAPE HAT   1450   82 83  200/  8/ 10 1015.5    4/11   3/11
41 SE CHARLESTON 1450   81 82  230/  6/  6 1014.8    3/ 7   3/ 7

$$




USA.gov is the U.S. government's official web portal to all federal, state and local government web resources and services.